Regional Weather Roundup
Issued by NWS

Home | Current Version | Previous Version | Text Only | Print | Product List | Glossary Off
Versions: 1 2 3 4 5 6 7 8 9 10 11 12 13 14 15 16 17 18 19 20 21 22 23 24 25 26 27 28 29 30 31 32 33 34 35 36 37 38 39 40 41 42 43 44 45 46 47 48 49 50

000
ASUS43 KMPX 200401
RWRMN
WEATHER ROUNDUP FOR MINNESOTA
NATIONAL WEATHER SERVICE TWIN CITIES/CHANHASSEN MN
1000 PM CST FRI DEC 19 2014


NOTE: "FAIR" INDICATES FEW OR NO CLOUDS BELOW 12,000 FEET WITH NO
SIGNIFICANT WEATHER AND/OR OBSTRUCTIONS TO VISIBILITY. N/A MEANS
CURRENT SKY AND/OR WEATHER CONDITIONS ARE NOT AVAILABLE.

MNZ060>063-068>070-200500-
   Twin Cities Metro

CITY           SKY/WX    TMP DP  RH WIND       PRES   REMARKS
TWIN CITIES    CLOUDY    29  24  82 SE8       30.18S HAZE    WCI  21
ST PAUL        CLOUDY    29  25  85 SE12      30.19F WCI  19
CRYSTAL        CLOUDY    30  26  85 SE9       30.15F FOG     WCI  22
BLAINE         CLOUDY    30  27  86 SE8       30.16F WCI  23
LAKEVILLE      CLOUDY    28  25  86 SE6       30.17F FOG     WCI  22
EDEN PRAIRIE   CLOUDY    30  25  81 SE10      30.15F HAZE    WCI  21
SOUTH ST PAUL  CLOUDY    30  25  81 SE5       30.18F WCI  25
LAKE ELMO      CLOUDY    30  27  86 SE7       30.19S WCI  23
$$
MNZ001>005-007-008-013>017-022>024-027-028-200500-
   Northwest Minnesota

CITY           SKY/WX    TMP DP  RH WIND       PRES   REMARKS
BEMIDJI        LGT SNOW  25  24  95 SE7       30.03S WCI  17
HALLOCK        CLOUDY    28  27  93 CALM      30.00F FOG
ROSEAU         CLOUDY    27  21  80 SE7       30.03S FOG     WCI  19
WARROAD        CLOUDY    25  21  86 SE6       30.04F FOG     WCI  18
THIEF RVR FALL CLOUDY    27  25  93 SE9       30.01F WCI  17
CROOKSTON      CLOUDY    30  28  93 S10       30.02S FOG     WCI  21
FOSSTON        CLOUDY    27  25  93 S6        30.01F FOG     WCI  20
DETROIT LAKES  MIX PCPN  30  30 100 S13       30.02F WCI  20
MOORHEAD       CLOUDY    30  30 100 S12       30.03S FOG     WCI  21
PARK RAPIDS    FOG       28  27  96 S9        30.03S VSB 1   WCI  19
MAHNOMEN       CLOUDY    28  28  96 S9        30.02S FOG     WCI  20
$$
MNZ006-009>011-018-025>026-200500-
   North Central Minnesota

CITY           SKY/WX    TMP DP  RH WIND       PRES   REMARKS
BAUDETTE       CLOUDY    25  22  88 SE7       30.05S WCI  17
FLAG ISLAND    MIX PCPN  25  23  93 S16       30.04F WCI  12
INTL FALLS     LGT SNOW  24  21  88 SE6       30.08F FOG     WCI  17
WASKISH        LGT SNOW  25  25 100 CALM      30.06S
BIG FORK       LGT SNOW  25  23  93 S6        30.08S WCI  18
LONGVILLE      LGT SNOW  25  25 100 SE7       30.06F WCI  17
GRAND RAPIDS   CLOUDY    25  21  86 SE9       30.08S WCI  15
CRANE LAKE     LGT SNOW  23  21  93 CALM      30.13F
ORR            LGT SNOW  23  19  86 SE6       30.07F WCI  16
COOK           LGT SNOW  25  23  93 S8        30.10F WCI  16
WALKER         CLOUDY    25  23  93 SE5       30.05S FOG     WCI  19
$$
MNZ012-019>021-037-200500-
   Northeast Minnesota

CITY           SKY/WX    TMP DP  RH WIND       PRES   REMARKS
DULUTH         LGT SNOW  25  22  88 SE6       30.14S FOG     WCI  18
ELY            LGT SNOW  23  21  93 SE6       30.12F WCI  16
HIBBING        CLOUDY    25  22  88 S8        30.11S FOG     WCI  16
EVELETH        LGT SNOW  27  25  93 S9        30.12F WCI  17
DULUTH HARBOR  CLOUDY    28  25  86 CALM      30.20S
TWO HARBORS    CLOUDY    28  23  80 S2          N/A
SILVER BAY     CLOUDY    27  25  93 CALM      30.15F
GRAND MARAIS     N/A     29  22  75 CALM      30.21F
G MARAIS ARPRT CLOUDY    21  18  86 CALM      30.14F
$$
MNZ029>031-032-039>041-046>048-054>057-064-200500-
   West Central Minnesota

CITY           SKY/WX    TMP DP  RH WIND       PRES   REMARKS
FERGUS FALLS   CLOUDY    30  28  93 S13       30.06S FOG     WCI  20
WHEATON        CLOUDY    28  27  93 SE7       30.06S FOG     WCI  21
MORRIS         CLOUDY    30  28  93 S13       30.04S FOG     WCI  20
ALEXANDRIA     CLOUDY    30  28  92 S13       30.06S WCI  20
ELBOW LAKE     CLOUDY    30  29  96 S15       30.04S FOG     WCI  19
WADENA         CLOUDY    28  28 100 S6        30.04F FOG     WCI  22
GLENWOOD       CLOUDY    30  28  93 S18       30.07S FOG     WCI  18
APPLETON       CLOUDY    32  28  86 S8        30.06S WCI  25
BENSON         CLOUDY    30  28  93 S10       30.07R FOG     WCI  21
ORTONVILLE     CLOUDY    30  27  86 S7        30.04S FOG     WCI  23
MADISON        PTCLDY    34  32  93 S6        30.06S WCI  29
WILLMAR        CLOUDY    32  28  86 S6        30.10S FOG     WCI  26
$$
MNZ033>034-036-042>043-049>051-058-059-200500-
   Central Minnesota

CITY           SKY/WX    TMP DP  RH WIND       PRES   REMARKS
ST CLOUD       CLOUDY    31  27  85 SE12      30.12S FOG     WCI  22
SAUK CENTRE    CLOUDY    30  28  93 S14       30.08S WCI  20
PAYNESVILLE    CLOUDY    28  28  97 E9        30.09F FOG     WCI  20
AITKIN         MIX PCPN  28  25  86 SE7       30.09F WCI  21
PINE RIVER     LGT SNOW  27  27 100 S8        30.09F WCI  18
BRAINERD       CLOUDY    26  25  96 S8        30.09F FOG     WCI  18
STAPLES        CLOUDY    27  27 100 SE7       30.06S FOG     WCI  19
LONG PRAIRIE   CLOUDY    30  28  93 SE9       30.07F FOG     WCI  22
LITTLE FALLS   CLOUDY    30  27  86 SE6       30.10S FOG     WCI  24
LITCHFIELD     CLOUDY    32  32 100 SE6       30.11S FOG     WCI  26
BUFFALO        CLOUDY    30  27  90 SE7       30.15S FOG     WCI  23
MAPLE LAKE     CLOUDY    31  29  94 SE8       30.14S FOG     WCI  23
$$
MNZ037-044-045-052-053-200500-
   East Central Minnesota

CITY           SKY/WX    TMP DP  RH WIND       PRES   REMARKS
PRINCETON      CLOUDY    28  27  93 SE6       30.14F FOG     WCI  22
MORA           CLOUDY    27  23  86 SE7       30.17S WCI  19
CAMBRIDGE      CLOUDY    30  21  69 SE6       30.14S WCI  24
RUSH CITY      CLOUDY    27  24  86 SE6       30.17S WCI  21
MOOSE LAKE     CLOUDY    27  23  86 S5        30.13F WCI  21
HINCKLEY       CLOUDY    28  25  86 CALM      30.16S
CLOQUET        CLOUDY    25  21  86 SE3       30.14S
MCGREGOR       CLOUDY    27  27 100 S8        30.12F WCI  18
$$
MNZ071>073-080-081-089-090-097-098-200500-
   Southwest Minnesota

CITY           SKY/WX    TMP DP  RH WIND       PRES   REMARKS
MONTEVIDEO     CLOUDY    30  30 100 SW9       30.08S FOG     WCI  22
GRANITE FALLS  CLOUDY    31  28  90 S14       30.10S WCI  21
CANBY          CLOUDY    32  30  92 S7        30.06S WCI  25
MARSHALL       CLOUDY    30  27  86 S10       30.08S WCI  21
REDWOOD FALLS  CLOUDY    32  28  85 S9        30.10F WCI  24
OLIVIA         CLOUDY    32  30  93 S8        30.09F WCI  25
PIPESTONE      CLOUDY    30  28  93 S6        30.05S FOG     WCI  24
WINDOM         CLOUDY    30  28  93 S8        30.10S WCI  23
WORTHINGTON    CLOUDY    30  27  86 S13       30.10R WCI  20
JACKSON        CLOUDY    32  28  86 S8        30.11S WCI  25
TRACY          CLOUDY    32  29  90 S7G17     30.08S WCI  25
SLAYTON        CLOUDY    29  29  99 S6        30.07F FOG     WCI  23
$$
MNZ065>067-074>077-082>085-091>093-200500-
   South Central Minnesota

CITY           SKY/WX    TMP DP  RH WIND       PRES   REMARKS
MANKATO        CLOUDY    30  27  86 SE8       30.15S WCI  23
NEW ULM        CLOUDY    30  30 100 SE8       30.13S FOG     WCI  23
ST JAMES       CLOUDY    34  30  86 SE7       30.14S WCI  28
FAIRMONT       CLOUDY    30  25  80 S10       30.13S WCI  21
GLENCOE        CLOUDY    32  31  96 SE7       30.13S FOG     WCI  25
FARIBAULT      CLOUDY    28  27  93 SE7       30.17F WCI  21
OWATONNA       CLOUDY    28  25  86 S9        30.17S FOG     WCI  20
WASECA         CLOUDY    30  28  93 SE8       30.17F FOG     WCI  23
ALBERT LEA     CLOUDY    28  28 100 S7        30.16S FOG     WCI  21
$$
MNZ078>079-086>088-094>096-200500-
   Southeast Minnesota

CITY           SKY/WX    TMP DP  RH WIND       PRES   REMARKS
ROCHESTER      CLOUDY    27  22  81 S9        30.18S WCI  18
RED WING       CLOUDY    30  23  74 SE5       30.20S WCI  25
STANTON        CLOUDY    31  26  82 S5        30.18S WCI  26
DODGE CENTER   CLOUDY    28  27  93 S10       30.17S FOG     WCI  19
WINONA         CLOUDY    30  23  74 SE6       30.23S WCI  24
AUSTIN         CLOUDY    28  25  86 S5        30.18S WCI  23
PRESTON        CLOUDY    26  22  83 S7        30.19S WCI  19
$$
ABBREVIATIONS USED IN REMARKS
   TC - TEMPERATURES IN CELSIUS
  WCI - WIND CHILL INDEX
   HX - HEAT INDEX
  VSB - VISIBILITY
$$


USA.gov is the U.S. government's official web portal to all federal, state and local government web resources and services.